This demonstration page uses our WeatherBlox Daily Observations layout. Learn more.

Left ArrowRight Arrow

41.55636, -103.73856

Hourly Observations for May 18, 2021

Temp ( °F °C ) Dew Point ( °F °C ) Humidity (%) Winds ( mph kmh ) Pressure ( in mb ) Visibility ( mi km ) Precip ( " mm )
12:58 am 00:58 Mostly Cloudy 51 10.8 49 9.4 91 91 S 8 13 29.93 1014 10 16 N/A
1:58 am 01:58 Cloudy 52 11 49 9.7 92 92 S 13 20 29.91 1013 10 16 N/A
2:58 am 02:58 Mostly Cloudy 51 10.7 49 9.3 91 91 S 13 20 29.90 1013 10 16 N/A
3:58 am 03:58 Mostly Clear 50 10.2 47 8.5 89 89 S 6 9 29.90 1013 10 16 N/A
4:58 am 04:58 Mostly Cloudy 49 9.4 47 8.4 94 94 S 6 9 29.92 1013 10 16 N/A
5:58 am 05:58 Partly Cloudy 49 9.4 46 8 91 91 SSE 6 9 29.92 1013 10 16 N/A
6:58 am 06:58 Mostly Cloudy 52 11.2 50 9.9 92 92 S 12 19 29.92 1013 10 16 N/A
7:58 am 07:58 Mostly Cloudy 56 13.3 50 9.9 80 80 SSE 10 17 29.92 1013 10 16 N/A
8:58 am 08:58 Mostly Cloudy 58 14.5 50 9.8 74 74 S 10 17 29.90 1013 10 16 N/A
9:58 am 09:58 Mostly Cloudy 58 14.6 50 10.2 75 75 SSE 10 17 29.89 1012 10 16 N/A
10:58 am 10:58 Mostly Cloudy 60 15.7 50 10.2 70 70 SE 12 19 29.89 1012 10 16 N/A
11:58 am 11:58 Mostly Cloudy 62 16.6 51 10.7 68 68 SSE 15 24 29.88 1012 10 16 N/A
12:58 pm 12:58 Partly Cloudy 65 18.6 52 11.3 63 63 S 16 26 29.86 1011 10 16 N/A
1:58 pm 13:58 Mostly Sunny 67 19.2 50 10.2 56 56 S 21 33 29.84 1011 10 16 N/A
2:58 pm 14:58 Partly Cloudy 69 20.8 49 9.2 48 48 S 17 28 29.81 1010 10 16 N/A
3:58 pm 15:58 Mostly Sunny 70 20.9 50 10 50 50 S 13 20 29.79 1009 10 16 N/A
4:58 pm 16:58 Sunny 69 20.4 49 9.7 50 50 SSW 15 24 29.79 1009 10 16 N/A
5:58 pm 17:58 Mostly Sunny 67 19.7 47 8.3 48 48 S 16 26 29.79 1009 10 16 N/A
6:58 pm 18:58 Sunny 63 17.4 48 8.9 58 58 S 17 28 29.81 1009 10 16 N/A
7:58 pm 19:58 Sunny 59 15.1 47 8.3 64 64 S 9 15 29.81 1009 10 16 N/A
8:58 pm 20:58 Mostly Clear 57 14 46 7.9 67 67 S 9 15 29.83 1010 10 16 N/A
9:58 pm 21:58 Clear 54 12 46 7.8 76 76 SSW 3 6 29.85 1011 10 16 N/A
11:58 pm 23:58 Mostly Cloudy 53 11.6 46 8 79 79 SW 7 11 29.82 1010 10 16 N/A

Powered by AerisWeather